Flag for U.S.A. Weather past 2 weeks in Tuscaloosa, Alabama, U.S.A.

Now
73 °F

Sunny.


Feels Like: 75 °F
Forecast: 48 / 72 °F
Wind: 8 mph from West

Location: Tuscaloosa Municipal Airport

Current Time: Apr 21, 2015 at 4:11:57 PM

Latest Report: Apr 21, 2015 at 2:53 PM


Visibility: 10 mi

Pressure: 29.99 "Hg

Humidity: 20%

Dew point: 30 °F

Location of TuscaloosaLocation

Historic Weather in Tuscaloosa — Graph

°F

Tuscaloosa temperature yesterday

Maximum temperature yesterday: 73 °F (at 2:53 PM)
Minimum temperature yesterday: 55 °F (at 11:53 PM)
Average temperature yesterday: 66 °F

Past Weeks' High & Low Weather Summary

 TemperatureHumidityPressure
High85 °F (Apr 9, 3:53 PM)97% (Apr 6, 10:53 PM)30.19 "Hg (Apr 6, 10:53 PM)
Low48 °F (Apr 21, 4:53 AM)20% (Apr 21, 2:53 PM)29.67 "Hg (Apr 19, 2:53 PM)
Average68 °F80%30.01 "Hg
* Reported Apr 6 2:02 PM — Apr 21 2:53 PM, Tuscaloosa, Weather by CustomWeather, © 2015

Note: Actual official high and low records may vary slightly from our data, if they occured in-between our weather recording intervals... More about our weather records

Advertising

Tuscaloosa weather history for previous 24 hours

 ConditionsComfort  
Time TempWeatherWind HumidityBarometerVisibility
2:53 PM
Tue, Apr 21
73 °FSunny.8 mph20%29.99 "Hg10 mi
1:53 PM71 °FSunny.8 mph24%30.02 "Hg10 mi
12:53 PM70 °FSunny.3 mph25%30.04 "Hg10 mi
11:53 AM68 °FSunny.7 mph28%30.07 "Hg10 mi
10:53 AM66 °FSunny.9 mph31%30.09 "Hg10 mi
9:53 AM64 °FSunny.8 mph38%30.08 "Hg10 mi
8:53 AM59 °FSunny.3 mph60%30.06 "Hg10 mi
7:53 AM53 °FSunny.No wind83%30.05 "Hg9 mi
6:53 AM48 °FClear.No wind93%30.02 "Hg7 mi
5:53 AM48 °FClear.No wind89%29.99 "Hg10 mi
4:53 AM48 °FClear.No wind93%29.97 "Hg9 mi
3:53 AM49 °FClear.No wind90%29.96 "Hg10 mi
2:53 AM49 °FClear.No wind93%29.95 "Hg10 mi
1:53 AM50 °FClear.No wind89%29.96 "Hg10 mi
12:53 AM54 °FClear.3 mph77%29.96 "Hg10 mi
11:53 PM
Mon, Apr 20
55 °FClear.5 mph74%29.97 "Hg10 mi
10:53 PM56 °FClear.5 mph75%29.96 "Hg10 mi
9:53 PM56 °FClear.3 mph81%29.94 "Hg10 mi
8:53 PM61 °FClear.5 mph58%29.92 "Hg10 mi
7:53 PM63 °FSunny.6 mph54%29.89 "Hg10 mi
6:53 PM67 °FSunny.8 mph49%29.86 "Hg10 mi
5:53 PM69 °FSunny.13 mph45%29.82 "Hg10 mi
4:53 PM71 °FPassing clouds.8 mph45%29.80 "Hg10 mi
Weather by CustomWeather, © 2015

See weather overviewHow to use our weather pages